SCP
-0 -0 -0 -0 0 0 -0 0 0 0 0 0 -0 -0 0 0 -0 -0 -0 -0 0 -0 -0 -0 0 0 0 0 0 0 0 0 0 0 0 0 0 0 0 0 0 0 1 0 0
-0 0 -0 -0 -0 0 0 0 0 0 0 0 -0 0 0 0 0 -0 0 -0 -0 -0 0 0 0 0 0 0 0 0 0 0 0 0 0 0 0 0 0 0 0 0 0 0 0
0 -0 -0 -0 -0 -0 -0 -0 0 -0 -0 0 0 0 0 0 0 0 0 0 -0 -0 0 0 0 0 0 0 0 0 0 0 0 0 0 0 0 0 0 0 0 0 0 1 0
0 0 -0 -0 -0 -0 -0 -0 0 -0 -0 -0 -0 -0 0 0 0 0 -0 -0 -0 -0 0 0 0 0 0 0 0 0 0 0 0 0 0 0 0 0 0 0 0 0 0 0 1
0 -0 -0 -0 -0 -0 -0 0 0 0 -0 -0 -0 -0 0 0 0 0 -0 -0 -0 0 0 0 0 0 0 0 0 0 0 0 0 0 0 0 0 0 0 0 0 0 0 0 0
0 -0 -0 -0 -0 -0 -0 0 -0 0 -0 0 0 -0 -0 0 0 -0 -0 -0 -0 0 0 0 0 0 0 0 0 0 0 0 0 0 0 0 0 0 0 0 0 0 0 0 0
-0 -0 -0 -0 -0 -0 0 0 -0 -0 -0 -0 -0 -0 -0 0 0 -0 -0 -0 -0 0 0 0 0 0 0 0 0 0 0 0 0 0 0 0 0 0 0 0 0 0 0 0 0
0 -0 -0 -0 -0 -0 0 -0 0 -0 -0 -0 -0 0 0 0 0 -0 -0 -0 0 0 0 0 -0 0 0 0 0 0 0 0 0 0 0 0 0 0 0 0 0 0 0 0 0
0 -0 -0 -0 -0 -0 0 -0 -0 -0 -0 -0 -0 -0 0 0 0 -0 -0 -0 -0 0 0 0 0 0 0 0 0 0 0 0 0 0 0 0 0 0 0 0 0 0 0 0 0
0 0 -0 -0 -0 -0 -0 -0 -0 -0 -0 0 0 0 0 -0 -0 0 -0 0 0 0 0 0 0 0 0 0 0 0 0 0 0 0 0 0 0 0 0 0 0 0 0 0 0
0 0 0 -0 -0 -0 -0 -0 0 0 -0 0 0 0 0 -0 0 -0 -0 0 0 0 0 0 0 0 0 0 0 0 0 0 0 0 0 0 0 0 0 0 0 0 0 0 0
0 0 0 0 0 0 -0 0 0 0 0 0 0 0 0 0 0 0 0 0 0 0 0 0 0 0 0 0 0 0 0 0 0 0 0 0 0 0 0 0 0 0 0 0 0
0 0 0 0 0 0 0 0 0 0 0 0 0 0 0 0 0 0 0 0 0 0 0 0 0 0 0 0 0 0 0 0 0 0 0 0 0 0 0 0 0 0 0 0 0
0 0 0 0 0 0 0 0 0 0 0 0 0 0 0 0 0 0 0 0 0 0 0 0 0 0 0 0 0 0 0 0 0 0 0 0 0 0 0 0 0 0 0 0 0
0 0 0 0 0 0 0 0 0 0 0 0 0 0 0 0 0 0 0 0 0 0 0 0 0 0 0 0 0 0 0 0 0 0 0 0 0 -0 0 0 0 0 0 0 0
0 0 0 0 0 0 -0 -0 0 0 0 0 0 0 0 0 0 0 0 0 0 0 0 0 0 0 0 0 0 0 0 0 0 0 0 0 0 0 0 0 0 0 0 0 0
0 0 0 0 0 0 0 0 0 0 0 0 0 0 0 0 0 0 0 0 0 0 0 0 0 0 0 0 0 0 0 0 0 0 0 0 0 0 0 0 0 0 0 0 0
0 0 0 0 0 0 0 0 0 0 0 0 0 0 0 0 0 0 0 0 0 0 0 0 0 0 0 0 0 0 0 0 0 0 0 0 0 0 0 0 0 -0 0 0 0
0 0 0 0 0 0 0 0 0 0 0 0 0 0 0 0 0 0 0 0 0 0 0 0 0 0 0 0 0 0 0 0 0 0 0 0 0 0 0 0 0 0 0 0 0
0 0 0 0 0 0 0 0 0 0 0 0 0 0 0 0 0 0 0 0 0 0 0 0 0 0 0 0 0 0 0 0 0 0 0 0 0 0 0 0 0 0 -0 0 -0
0 0 0 0 0 0 0 0 0 0 0 0 0 0 0 0 0 0 0 0 0 0 0 0 0 0 0 0 0 0 0 0 0 0 0 0 0 0 0 0 0 0 0 -0 0
0 0 0 0 0 0 0 0 0 0 0 0 0 0 0 0 0 0 0 0 0 0 0 0 0 0 0 0 0 0 0 0 0 0 0 0 0 0 0 0 0 0 0 0 -0
0 0 0 0 0 0 0 0 0 0 0 0 0 0 0 0 0 0 0 0 0 0 0 0 0 0 0 0 0 0 0 0 0 0 0 0 0 0 0 0 0 -0 0 0 0
0 0 0 0 0 0 0 0 0 0 0 0 0 0 0 0 0 0 0 0 0 0 0 0 0 0 0 0 0 0 0 0 0 0 0 0 -0 0 0 -0 -0 -0 0 0 0
0 0 0 0 0 0 0 0 0 0 0 0 0 0 0 0 0 0 0 0 0 0 0 0 0 0 0 0 0 0 0 0 0 0 0 0 0 -0 -0 0 -0 -0 0 0 0
0 0 0 0 0 0 0 0 0 0 0 0 0 0 0 0 0 0 0 0 0 0 0 0 0 0 0 0 0 0 0 0 0 0 0 0 -0 -0 -0 -0 -0 -0 0 -0 -0
0 0 0 0 0 0 0 0 0 0 0 0 0 0 0 0 0 0 0 0 0 0 0 0 0 0 0 0 0 0 0 0 0 0 0 0 0 -0 -0 -0 -0 0 0 0 -0
Wind_Speed_500mb
15 17 20 21 21 22 23 23 22 20 19 20 20 14 2 15 49 40 42 38 39 27 19 21 15 9 9 6 6 6 9 12 4 8 9 18 20 16 15 16 5 10 13 7 17
14 16 18 19 21 22 21 21 21 19 19 21 26 27 15 6 20 54 40 33 26 26 28 21 14 12 6 5 4 9 8 13 10 11 14 17 14 27 19 11 16 18 19 6 23
12 14 15 18 19 20 20 21 19 18 21 22 24 22 24 8 9 32 38 31 27 27 22 18 11 8 15 12 15 10 10 8 4 13 18 16 10 32 31 22 40 36 25 10 18
12 14 16 18 19 19 18 19 15 18 29 30 27 18 29 21 6 34 34 29 28 28 20 20 8 4 9 9 10 3 7 8 10 17 16 14 18 21 35 23 32 27 10 10 18
11 12 15 18 19 19 18 17 13 18 23 28 32 22 19 23 18 32 30 27 25 28 26 13 24 13 10 9 12 12 11 11 17 14 16 21 6 7 39 33 30 25 18 20 18
11 13 16 19 20 19 15 13 9 7 14 13 15 39 21 17 26 29 27 25 28 29 29 31 13 16 16 10 11 6 9 21 20 15 3 16 14 12 36 23 27 33 35 31 24
12 13 15 17 20 18 16 13 12 8 13 14 8 6 48 27 26 27 21 25 25 28 26 24 19 5 5 7 5 3 5 4 33 21 7 18 5 20 27 16 23 27 29 36 33
9 11 13 14 18 16 16 18 14 4 18 16 14 21 17 36 28 21 14 17 24 24 20 30 18 15 9 4 4 4 7 11 21 29 7 10 11 24 24 15 19 24 24 24 32
8 9 12 14 16 14 8 14 24 5 12 17 15 13 10 31 28 24 23 11 12 19 23 21 13 12 1 5 9 7 12 14 3 29 12 8 11 24 22 16 19 23 26 28 30
4 7 10 12 13 13 10 2 23 16 7 11 14 7 18 15 29 25 15 15 11 10 8 15 8 14 22 17 8 16 15 7 13 19 17 10 11 14 20 19 20 21 24 26 29
4 7 9 11 11 15 12 4 5 6 43 21 12 10 11 17 24 27 14 19 8 20 8 16 18 20 25 19 12 11 13 16 6 14 8 10 10 14 17 20 21 24 26 28 28
4 6 9 9 12 15 10 4 11 17 21 22 21 15 18 23 12 42 26 7 26 21 3 6 20 17 9 11 8 12 15 15 1 10 13 2 4 8 16 21 23 24 26 29 27
3 5 9 8 8 13 16 14 19 18 3 10 17 11 16 16 16 31 27 11 15 19 24 20 12 12 8 15 16 2 17 20 13 19 12 12 17 13 6 11 18 23 24 27 32
2 3 7 7 4 11 11 8 9 8 4 15 11 13 15 6 5 28 23 7 9 10 10 10 8 12 11 11 19 6 17 15 13 9 7 5 7 16 13 6 17 23 26 26 28
3 1 4 7 3 8 6 5 6 6 5 6 6 8 12 9 9 19 26 10 10 9 3 6 12 17 16 13 16 9 18 8 9 9 12 10 9 15 13 11 13 23 25 26 28
6 2 1 2 4 6 8 4 6 8 3 3 6 11 2 13 8 12 13 12 6 4 16 7 2 6 10 16 10 25 10 8 5 4 5 4 7 8 6 5 10 19 22 24 28
9 6 3 2 2 5 8 4 8 8 1 2 3 5 5 10 8 15 9 19 11 9 11 5 3 3 14 17 4 24 13 1 4 4 4 4 9 9 8 5 11 15 17 20 25
14 9 7 4 2 4 6 2 5 3 5 2 1 2 3 8 5 7 4 6 15 7 3 8 3 11 17 8 10 14 11 6 8 9 11 7 8 6 6 3 8 11 14 19 22
18 11 9 7 4 1 4 7 10 7 8 13 5 3 1 2 3 2 8 4 5 12 6 7 3 1 3 6 8 6 9 3 5 5 7 3 7 9 5 11 13 13 13 19 23
20 12 13 11 6 2 6 8 7 4 8 3 6 3 3 1 2 0 2 2 3 3 3 3 8 1 2 4 4 6 2 2 1 10 10 0 8 6 8 5 7 8 12 17 22
23 9 10 14 9 3 5 7 3 6 3 3 6 6 3 4 2 2 5 5 2 3 1 4 2 1 4 4 6 2 2 1 3 2 6 11 4 6 6 7 9 8 10 16 20
23 7 14 20 3 5 4 9 6 11 5 4 3 2 3 8 4 3 3 2 7 7 1 6 4 7 2 1 4 7 2 1 3 6 3 5 11 4 2 7 12 13 11 12 16
22 9 19 27 6 3 2 7 4 8 9 9 7 2 2 5 2 5 5 5 9 5 2 4 2 7 4 2 4 9 11 10 2 1 11 5 3 3 8 12 14 17 14 14 12
22 6 7 14 8 10 9 7 9 4 9 6 7 8 8 4 3 4 6 6 8 5 3 5 3 8 7 5 5 7 11 17 14 6 4 19 24 22 10 14 20 18 21 16 12
23 13 17 8 10 14 14 18 12 11 5 13 6 14 9 6 2 6 7 7 8 10 7 3 6 2 17 23 19 20 18 18 27 24 12 5 10 30 19 17 38 33 18 15 12
28 17 15 9 18 25 14 15 19 12 19 9 10 15 18 9 7 10 16 11 7 16 8 4 4 5 9 4 7 14 24 24 23 26 30 30 43 37 17 8 9 16 17 16 15
31 33 21 16 15 13 11 14 21 25 11 2 16 11 16 14 6 7 8 4 5 9 15 8 3 3 8 2 10 13 14 29 12 19 13 17 18 6 5 6 10 16 21 18 15
Wind_Direction_500mb
45 37 36 24 23 19 14 15 14 15 21 49 35 37 53 33 42 38 35 15 7 358 8 10 31 48 38 38 5 277 255 259 17 308 22 2 335 359 304 255 21 3 5 347 174
47 41 33 30 22 17 16 15 17 28 51 62 44 35 29 60 51 35 27 19 11 7 34 42 37 42 66 32 8 294 265 39 22 18 352 322 358 355 298 197 27 347 347 7 178
47 42 35 32 26 20 12 21 32 51 64 50 34 29 25 71 59 8 14 17 17 23 35 41 37 52 60 50 3 7 5 32 88 349 339 312 353 25 4 44 347 327 321 161 181
44 34 28 27 23 22 16 29 41 78 77 47 36 47 46 44 32 357 10 14 20 33 42 42 46 60 62 46 9 176 29 344 340 323 325 330 311 73 45 6 353 352 39 159 177
38 33 27 20 22 20 14 30 52 93 58 50 47 44 58 55 25 12 13 22 38 43 46 49 57 57 77 69 58 41 24 2 348 312 304 307 322 63 27 14 17 31 85 100 106
25 22 22 20 18 16 17 22 45 83 24 47 48 53 59 69 20 5 15 39 48 49 43 57 64 68 75 55 28 70 37 40 15 357 328 330 34 339 360 13 43 39 42 50 55
22 16 21 19 18 19 18 20 37 48 37 37 43 46 45 45 23 2 20 47 45 49 43 53 56 86 104 102 57 134 277 319 20 12 12 329 146 20 354 23 39 45 41 38 37
20 15 14 23 20 25 33 40 21 75 28 44 85 68 76 33 35 32 47 49 48 49 56 47 62 53 53 101 170 267 247 300 37 3 11 314 96 22 8 19 36 44 39 28 33
14 14 10 15 18 15 350 352 359 188 67 63 60 103 63 22 29 36 36 38 32 43 42 37 46 46 137 279 192 61 5 351 94 17 347 325 37 19 20 30 37 37 38 29 10
9 359 14 16 11 7 351 354 47 47 98 46 36 74 32 357 20 22 30 43 33 19 29 28 36 52 32 8 34 345 349 355 358 3 14 53 63 41 32 38 35 35 33 29 21
346 353 11 12 13 5 0 102 28 25 63 63 30 63 19 9 26 2 351 28 21 50 45 27 56 28 18 13 4 336 324 338 18 351 326 39 55 48 46 41 40 30 29 27 26
343 349 1 20 19 27 22 96 127 138 81 60 57 48 31 24 355 12 34 44 49 48 26 126 45 9 352 8 349 357 352 352 286 3 298 245 102 80 51 54 42 34 27 18 13
331 359 358 2 40 35 50 92 117 122 63 32 31 21 14 31 32 360 22 12 24 48 50 63 20 333 349 17 352 56 12 341 312 323 260 271 231 202 140 61 49 40 33 22 12
311 9 360 5 51 31 49 99 131 151 109 360 6 4 358 14 43 17 20 25 41 42 43 59 360 355 359 25 352 350 354 318 305 285 320 219 343 187 161 134 48 30 24 21 12
222 306 31 35 27 50 34 97 129 107 30 16 355 350 13 49 327 16 22 35 47 53 279 36 8 360 15 358 333 353 330 309 308 284 311 193 264 97 169 206 28 18 15 13 11
198 212 31 2 44 46 34 78 101 52 244 334 321 348 343 30 16 349 30 44 29 344 62 78 330 21 338 318 302 313 298 242 271 296 238 85 269 144 166 11 353 9 11 11 8
209 198 183 230 295 16 18 70 35 110 57 79 29 11 60 17 26 11 49 42 17 350 25 5 15 38 2 315 192 359 348 321 217 220 347 129 260 337 120 77 3 348 355 357 358
217 208 194 195 238 15 38 55 85 232 205 154 135 88 96 346 57 37 27 56 52 9 73 10 212 21 4 22 331 8 5 24 308 338 332 145 248 83 108 165 332 322 329 342 349
215 208 222 213 211 359 91 62 208 196 150 154 135 104 7 174 318 87 58 41 35 3 39 334 232 155 48 332 326 352 38 350 288 186 252 243 160 146 195 255 275 313 323 346 350
206 208 227 220 211 124 78 220 169 139 125 165 166 222 160 133 243 111 71 101 124 24 111 137 285 337 24 277 236 342 36 230 181 339 311 318 282 5 199 248 306 297 328 344 347
193 209 216 207 180 121 159 198 154 142 135 140 176 146 143 163 222 179 138 143 199 141 84 120 280 52 285 22 348 171 86 25 300 316 317 317 63 123 167 1 321 300 322 336 340
185 208 190 172 153 72 131 148 146 158 166 122 147 146 187 156 183 215 174 88 163 179 7 117 308 287 294 206 306 287 272 236 305 113 251 291 283 114 126 314 299 291 300 324 335
181 160 180 175 148 191 178 140 194 155 177 169 147 169 127 162 236 221 195 138 177 205 50 117 176 294 216 211 203 256 223 222 121 243 231 259 295 158 240 275 280 278 278 299 323
169 134 152 196 184 153 143 193 157 188 150 149 129 153 147 148 159 221 220 170 192 219 134 127 278 243 277 344 28 229 232 222 196 216 232 236 287 288 250 250 253 278 285 287 314
175 194 168 186 222 175 161 166 152 169 202 177 184 216 170 148 173 215 182 168 190 178 141 251 266 279 276 278 276 258 255 216 216 221 221 115 260 277 285 267 271 282 274 275 307
175 156 153 146 153 157 159 207 177 160 162 190 219 185 192 184 201 200 178 200 192 177 182 173 300 356 281 325 274 272 259 235 237 250 260 264 280 287 282 313 283 259 233 268 303
185 164 162 155 155 159 202 176 194 149 196 164 186 149 198 218 125 83 110 54 182 170 188 180 227 346 272 325 303 273 232 201 196 212 201 199 226 273 276 272 258 238 234 254 278
Wind_Speed_850mb
15 17 20 21 21 22 23 23 22 20 19 20 20 14 2 15 49 40 42 38 39 27 19 21 15 9 9 6 6 6 9 12 4 8 9 18 20 16 15 16 5 10 13 7 17
14 16 18 19 21 22 21 21 21 19 19 21 26 27 15 6 20 54 40 33 26 26 28 21 14 12 6 5 4 9 8 13 10 11 14 17 14 27 19 11 16 18 19 6 23
12 14 15 18 19 20 20 21 19 18 21 22 24 22 24 8 9 32 38 31 27 27 22 18 11 8 15 12 15 10 10 8 4 13 18 16 10 32 31 22 40 36 25 10 18
12 14 16 18 19 19 18 19 15 18 29 30 27 18 29 21 6 34 34 29 28 28 20 20 8 4 9 9 10 3 7 8 10 17 16 14 18 21 35 23 32 27 10 10 18
11 12 15 18 19 19 18 17 13 18 23 28 32 22 19 23 18 32 30 27 25 28 26 13 24 13 10 9 12 12 11 11 17 14 16 21 6 7 39 33 30 25 18 20 18
11 13 16 19 20 19 15 13 9 7 14 13 15 39 21 17 26 29 27 25 28 29 29 31 13 16 16 10 11 6 9 21 20 15 3 16 14 12 36 23 27 33 35 31 24
12 13 15 17 20 18 16 13 12 8 13 14 8 6 48 27 26 27 21 25 25 28 26 24 19 5 5 7 5 3 5 4 33 21 7 18 5 20 27 16 23 27 29 36 33
9 11 13 14 18 16 16 18 14 4 18 16 14 21 17 36 28 21 14 17 24 24 20 30 18 15 9 4 4 4 7 11 21 29 7 10 11 24 24 15 19 24 24 24 32
8 9 12 14 16 14 8 14 24 5 12 17 15 13 10 31 28 24 23 11 12 19 23 21 13 12 1 5 9 7 12 14 3 29 12 8 11 24 22 16 19 23 26 28 30
4 7 10 12 13 13 10 2 23 16 7 11 14 7 18 15 29 25 15 15 11 10 8 15 8 14 22 17 8 16 15 7 13 19 17 10 11 14 20 19 20 21 24 26 29
4 7 9 11 11 15 12 4 5 6 43 21 12 10 11 17 24 27 14 19 8 20 8 16 18 20 25 19 12 11 13 16 6 14 8 10 10 14 17 20 21 24 26 28 28
4 6 9 9 12 15 10 4 11 17 21 22 21 15 18 23 12 42 26 7 26 21 3 6 20 17 9 11 8 12 15 15 1 10 13 2 4 8 16 21 23 24 26 29 27
3 5 9 8 8 13 16 14 19 18 3 10 17 11 16 16 16 31 27 11 15 19 24 20 12 12 8 15 16 2 17 20 13 19 12 12 17 13 6 11 18 23 24 27 32
2 3 7 7 4 11 11 8 9 8 4 15 11 13 15 6 5 28 23 7 9 10 10 10 8 12 11 11 19 6 17 15 13 9 7 5 7 16 13 6 17 23 26 26 28
3 1 4 7 3 8 6 5 6 6 5 6 6 8 12 9 9 19 26 10 10 9 3 6 12 17 16 13 16 9 18 8 9 9 12 10 9 15 13 11 13 23 25 26 28
6 2 1 2 4 6 8 4 6 8 3 3 6 11 2 13 8 12 13 12 6 4 16 7 2 6 10 16 10 25 10 8 5 4 5 4 7 8 6 5 10 19 22 24 28
9 6 3 2 2 5 8 4 8 8 1 2 3 5 5 10 8 15 9 19 11 9 11 5 3 3 14 17 4 24 13 1 4 4 4 4 9 9 8 5 11 15 17 20 25
14 9 7 4 2 4 6 2 5 3 5 2 1 2 3 8 5 7 4 6 15 7 3 8 3 11 17 8 10 14 11 6 8 9 11 7 8 6 6 3 8 11 14 19 22
18 11 9 7 4 1 4 7 10 7 8 13 5 3 1 2 3 2 8 4 5 12 6 7 3 1 3 6 8 6 9 3 5 5 7 3 7 9 5 11 13 13 13 19 23
20 12 13 11 6 2 6 8 7 4 8 3 6 3 3 1 2 0 2 2 3 3 3 3 8 1 2 4 4 6 2 2 1 10 10 0 8 6 8 5 7 8 12 17 22
23 9 10 14 9 3 5 7 3 6 3 3 6 6 3 4 2 2 5 5 2 3 1 4 2 1 4 4 6 2 2 1 3 2 6 11 4 6 6 7 9 8 10 16 20
23 7 14 20 3 5 4 9 6 11 5 4 3 2 3 8 4 3 3 2 7 7 1 6 4 7 2 1 4 7 2 1 3 6 3 5 11 4 2 7 12 13 11 12 16
22 9 19 27 6 3 2 7 4 8 9 9 7 2 2 5 2 5 5 5 9 5 2 4 2 7 4 2 4 9 11 10 2 1 11 5 3 3 8 12 14 17 14 14 12
22 6 7 14 8 10 9 7 9 4 9 6 7 8 8 4 3 4 6 6 8 5 3 5 3 8 7 5 5 7 11 17 14 6 4 19 24 22 10 14 20 18 21 16 12
23 13 17 8 10 14 14 18 12 11 5 13 6 14 9 6 2 6 7 7 8 10 7 3 6 2 17 23 19 20 18 18 27 24 12 5 10 30 19 17 38 33 18 15 12
28 17 15 9 18 25 14 15 19 12 19 9 10 15 18 9 7 10 16 11 7 16 8 4 4 5 9 4 7 14 24 24 23 26 30 30 43 37 17 8 9 16 17 16 15
31 33 21 16 15 13 11 14 21 25 11 2 16 11 16 14 6 7 8 4 5 9 15 8 3 3 8 2 10 13 14 29 12 19 13 17 18 6 5 6 10 16 21 18 15
Wind_Direction_850mb
45 37 36 24 23 19 14 15 14 15 21 49 35 37 53 33 42 38 35 15 7 358 8 10 31 48 38 38 5 277 255 259 17 308 22 2 335 359 304 255 21 3 5 347 174
47 41 33 30 22 17 16 15 17 28 51 62 44 35 29 60 51 35 27 19 11 7 34 42 37 42 66 32 8 294 265 39 22 18 352 322 358 355 298 197 27 347 347 7 178
47 42 35 32 26 20 12 21 32 51 64 50 34 29 25 71 59 8 14 17 17 23 35 41 37 52 60 50 3 7 5 32 88 349 339 312 353 25 4 44 347 327 321 161 181
44 34 28 27 23 22 16 29 41 78 77 47 36 47 46 44 32 357 10 14 20 33 42 42 46 60 62 46 9 176 29 344 340 323 325 330 311 73 45 6 353 352 39 159 177
38 33 27 20 22 20 14 30 52 93 58 50 47 44 58 55 25 12 13 22 38 43 46 49 57 57 77 69 58 41 24 2 348 312 304 307 322 63 27 14 17 31 85 100 106
25 22 22 20 18 16 17 22 45 83 24 47 48 53 59 69 20 5 15 39 48 49 43 57 64 68 75 55 28 70 37 40 15 357 328 330 34 339 360 13 43 39 42 50 55
22 16 21 19 18 19 18 20 37 48 37 37 43 46 45 45 23 2 20 47 45 49 43 53 56 86 104 102 57 134 277 319 20 12 12 329 146 20 354 23 39 45 41 38 37
20 15 14 23 20 25 33 40 21 75 28 44 85 68 76 33 35 32 47 49 48 49 56 47 62 53 53 101 170 267 247 300 37 3 11 314 96 22 8 19 36 44 39 28 33
14 14 10 15 18 15 350 352 359 188 67 63 60 103 63 22 29 36 36 38 32 43 42 37 46 46 137 279 192 61 5 351 94 17 347 325 37 19 20 30 37 37 38 29 10
9 359 14 16 11 7 351 354 47 47 98 46 36 74 32 357 20 22 30 43 33 19 29 28 36 52 32 8 34 345 349 355 358 3 14 53 63 41 32 38 35 35 33 29 21
346 353 11 12 13 5 0 102 28 25 63 63 30 63 19 9 26 2 351 28 21 50 45 27 56 28 18 13 4 336 324 338 18 351 326 39 55 48 46 41 40 30 29 27 26
343 349 1 20 19 27 22 96 127 138 81 60 57 48 31 24 355 12 34 44 49 48 26 126 45 9 352 8 349 357 352 352 286 3 298 245 102 80 51 54 42 34 27 18 13
331 359 358 2 40 35 50 92 117 122 63 32 31 21 14 31 32 360 22 12 24 48 50 63 20 333 349 17 352 56 12 341 312 323 260 271 231 202 140 61 49 40 33 22 12
311 9 360 5 51 31 49 99 131 151 109 360 6 4 358 14 43 17 20 25 41 42 43 59 360 355 359 25 352 350 354 318 305 285 320 219 343 187 161 134 48 30 24 21 12
222 306 31 35 27 50 34 97 129 107 30 16 355 350 13 49 327 16 22 35 47 53 279 36 8 360 15 358 333 353 330 309 308 284 311 193 264 97 169 206 28 18 15 13 11
198 212 31 2 44 46 34 78 101 52 244 334 321 348 343 30 16 349 30 44 29 344 62 78 330 21 338 318 302 313 298 242 271 296 238 85 269 144 166 11 353 9 11 11 8
209 198 183 230 295 16 18 70 35 110 57 79 29 11 60 17 26 11 49 42 17 350 25 5 15 38 2 315 192 359 348 321 217 220 347 129 260 337 120 77 3 348 355 357 358
217 208 194 195 238 15 38 55 85 232 205 154 135 88 96 346 57 37 27 56 52 9 73 10 212 21 4 22 331 8 5 24 308 338 332 145 248 83 108 165 332 322 329 342 349
215 208 222 213 211 359 91 62 208 196 150 154 135 104 7 174 318 87 58 41 35 3 39 334 232 155 48 332 326 352 38 350 288 186 252 243 160 146 195 255 275 313 323 346 350
206 208 227 220 211 124 78 220 169 139 125 165 166 222 160 133 243 111 71 101 124 24 111 137 285 337 24 277 236 342 36 230 181 339 311 318 282 5 199 248 306 297 328 344 347
193 209 216 207 180 121 159 198 154 142 135 140 176 146 143 163 222 179 138 143 199 141 84 120 280 52 285 22 348 171 86 25 300 316 317 317 63 123 167 1 321 300 322 336 340
185 208 190 172 153 72 131 148 146 158 166 122 147 146 187 156 183 215 174 88 163 179 7 117 308 287 294 206 306 287 272 236 305 113 251 291 283 114 126 314 299 291 300 324 335
181 160 180 175 148 191 178 140 194 155 177 169 147 169 127 162 236 221 195 138 177 205 50 117 176 294 216 211 203 256 223 222 121 243 231 259 295 158 240 275 280 278 278 299 323
169 134 152 196 184 153 143 193 157 188 150 149 129 153 147 148 159 221 220 170 192 219 134 127 278 243 277 344 28 229 232 222 196 216 232 236 287 288 250 250 253 278 285 287 314
175 194 168 186 222 175 161 166 152 169 202 177 184 216 170 148 173 215 182 168 190 178 141 251 266 279 276 278 276 258 255 216 216 221 221 115 260 277 285 267 271 282 274 275 307
175 156 153 146 153 157 159 207 177 160 162 190 219 185 192 184 201 200 178 200 192 177 182 173 300 356 281 325 274 272 259 235 237 250 260 264 280 287 282 313 283 259 233 268 303
185 164 162 155 155 159 202 176 194 149 196 164 186 149 198 218 125 83 110 54 182 170 188 180 227 346 272 325 303 273 232 201 196 212 201 199 226 273 276 272 258 238 234 254 278